Charlevoix, MI

10:31 PM EDT on May 23, 2017 (GMT -0400)
Charlevoix Municipal

Weather History for KCVX - July, 2012

Change the Weather History Date:

Wednesday, July 4, 2012

  Actual Average Record
Temperature  
Mean Temperature 76 °F -  
Max Temperature 82 °F 74 °F 89 °F (2010)
Min Temperature 69 °F 57 °F 45 °F (2014)
Cooling Degree Days 10    
Growing Degree Days 26 (Base 50)    
Moisture  
Dew Point 67 °F    
Average Humidity 76    
Maximum Humidity 92    
Minimum Humidity 57    
Precipitation  
Precipitation 0.00 in - - ()
Sea Level Pressure  
Sea Level Pressure 29.85 in    
Wind  
Wind Speed 3 mph (NNW)    
Max Wind Speed 8 mph    
Max Gust Speed -    
Visibility 10 miles    
Events      
Averages and records for this station are not official NWS values.
T = Trace of Precipitation, MM = Missing Value Source: NWS Daily Summary

Daily Weather History Graph

Daily Weather History Graph

Search for Another Location

Airport or City:

Trip Planner

Search our weather history database for the weather conditions in past years. The results will help you decide how hot, cold, wet, or windy it might be!

Date:

Astronomy

Jul. 04, 2012 Rise Set
Actual Time 5:59 AM EDT 9:31 PM EDT
Civil Twilight 5:21 AM EDT 10:08 PM EDT
Nautical Twilight 4:32 AM EDT 10:58 PM EDT
Astronomical Twilight 3:27 AM EDT 12:02 AM EDT
Moon 10:03 PM EDT (7/4) 7:05 AM EDT (7/4)
Length of Visible Light 16h 46m
Length of Day
15h 32m
Full, 99% of the Moon is Illuminated
Jul 4
Full
Jul 10
Last Quarter
Jul 19
New
Jul 26
First Quarter
Aug 1
Full

Hourly Weather History & Observations

Time (EDT) Temp. Heat Index Dew Point Humidity Pressure Visibility Wind Dir Wind Speed Gust Speed Precip Events Conditions
12:14 AM 72.0 °F - 66.9 °F 84% 29.79 in 10.0 mi Calm Calm - N/A   Clear
12:34 AM 70.7 °F - 67.3 °F 89% 29.79 in 10.0 mi ESE 3.5 mph - N/A   Clear
12:55 AM 71.6 °F - 67.1 °F 86% 29.78 in 10.0 mi ESE 4.6 mph - N/A   Mostly Cloudy
1:14 AM 71.2 °F - 67.3 °F 87% 29.78 in 10.0 mi ESE 3.5 mph - N/A   Mostly Cloudy
1:34 AM 70.9 °F - 67.3 °F 88% 29.78 in 10.0 mi ESE 4.6 mph - N/A   Scattered Clouds
1:55 AM 70.7 °F - 67.1 °F 88% 29.77 in 10.0 mi Calm Calm - N/A   Clear
2:14 AM 71.2 °F - 66.6 °F 85% 29.77 in 10.0 mi Calm Calm - N/A   Scattered Clouds
2:34 AM 70.9 °F - 67.1 °F 88% 29.78 in 10.0 mi East 4.6 mph - N/A   Scattered Clouds
2:54 AM 71.2 °F - 66.9 °F 86% 29.78 in 10.0 mi East 3.5 mph - N/A   Scattered Clouds
3:14 AM 71.2 °F - 66.4 °F 85% 29.78 in 10.0 mi ESE 3.5 mph - N/A   Clear
3:34 AM 70.3 °F - 66.4 °F 87% 29.78 in 10.0 mi SE 3.5 mph - N/A   Clear
3:54 AM 70.7 °F - 66.4 °F 86% 29.79 in 10.0 mi ESE 3.5 mph - N/A   Scattered Clouds
4:14 AM 70.5 °F - 66.4 °F 87% 29.79 in 10.0 mi Calm Calm - N/A   Scattered Clouds
4:34 AM 70.5 °F - 66.2 °F 86% 29.79 in 10.0 mi Calm Calm - N/A   Clear
4:54 AM 70.3 °F - 65.8 °F 86% 29.79 in 10.0 mi WSW 3.5 mph - N/A   Clear
5:14 AM 70.9 °F - 66.4 °F 86% 29.80 in 10.0 mi West 5.8 mph - N/A   Clear
5:34 AM 70.0 °F - 66.2 °F 88% 29.80 in 10.0 mi NNW 3.5 mph - N/A   Clear
5:54 AM 69.3 °F - 66.2 °F 90% 29.81 in 10.0 mi West 4.6 mph - N/A   Clear
6:15 AM 69.6 °F - 67.1 °F 92% 29.81 in 10.0 mi West 5.8 mph - N/A   Clear
6:34 AM 69.8 °F - 67.1 °F 91% 29.82 in 7.0 mi Calm Calm - N/A   Clear
6:54 AM 70.2 °F - 67.5 °F 91% 29.81 in 7.0 mi WSW 3.5 mph - N/A   Mostly Cloudy
7:15 AM 71.1 °F - 68.0 °F 90% 29.82 in 7.0 mi Calm Calm - N/A   Mostly Cloudy
7:34 AM 72.0 °F - 67.6 °F 86% 29.82 in 10.0 mi Calm Calm - N/A   Mostly Cloudy
7:54 AM 73.6 °F - 67.8 °F 82% 29.83 in 10.0 mi Calm Calm - N/A   Scattered Clouds
8:15 AM 72.7 °F - 67.5 °F 84% 29.84 in 10.0 mi WNW 3.5 mph - N/A   Scattered Clouds
8:34 AM 73.6 °F - 67.8 °F 82% 29.84 in 10.0 mi Calm Calm - N/A   Scattered Clouds
8:54 AM 74.3 °F - 68.0 °F 81% 29.85 in 10.0 mi NW 3.5 mph - N/A   Scattered Clouds
9:15 AM 75.4 °F - 68.2 °F 78% 29.85 in 10.0 mi Calm Calm - N/A   Scattered Clouds
9:34 AM 76.6 °F - 68.5 °F 76% 29.84 in 10.0 mi Calm Calm - N/A   Clear
9:54 AM 77.9 °F - 68.7 °F 73% 29.84 in 10.0 mi ESE 3.5 mph - N/A   Clear
10:14 AM 79.0 °F - 68.7 °F 71% 29.84 in 10.0 mi Calm Calm - N/A   Clear
10:34 AM 79.9 °F - 68.4 °F 68% 29.84 in 10.0 mi Calm Calm - N/A   Clear
10:54 AM 81.7 °F 84.5 °F 67.8 °F 63% 29.84 in 10.0 mi Calm Calm - N/A   Clear
11:14 AM 79.0 °F - 69.8 °F 73% 29.85 in 10.0 mi NNW 5.8 mph - N/A   Clear
11:34 AM 77.4 °F - 68.7 °F 75% 29.86 in 10.0 mi NNW 5.8 mph - N/A   Clear
11:54 AM 76.6 °F - 68.7 °F 76% 29.87 in 10.0 mi NNW 3.5 mph - N/A   Clear
12:14 PM 78.1 °F - 69.3 °F 74% 29.86 in 10.0 mi NNW 4.6 mph - N/A   Clear
12:34 PM 78.8 °F - 69.3 °F 72% 29.87 in 10.0 mi NNW 6.9 mph - N/A   Clear
12:54 PM 77.0 °F - 69.1 °F 76% 29.87 in 10.0 mi NW 4.6 mph - N/A   Clear
1:14 PM 78.3 °F - 69.8 °F 75% 29.87 in 10.0 mi NNW 5.8 mph - N/A   Clear
1:35 PM 78.1 °F - 70.2 °F 77% 29.87 in 10.0 mi NNW 4.6 mph - N/A   Clear
1:54 PM 79.0 °F - 69.6 °F 73% 29.88 in 10.0 mi NNW 8.1 mph - N/A   Clear
2:14 PM 76.8 °F - 69.1 °F 77% 29.89 in 10.0 mi NNW 6.9 mph - N/A   Clear
2:35 PM 77.2 °F - 69.1 °F 76% 29.88 in 10.0 mi NW 4.6 mph - N/A   Clear
2:54 PM 78.8 °F - 69.3 °F 72% 29.87 in 10.0 mi North 4.6 mph - N/A   Clear
3:14 PM 79.7 °F - 67.5 °F 66% 29.88 in 10.0 mi NNW 4.6 mph - N/A   Clear
3:35 PM 80.1 °F 82.1 °F 66.0 °F 62% 29.89 in 10.0 mi NW 5.8 mph - N/A   Clear
3:54 PM 80.8 °F 83.1 °F 66.7 °F 62% 29.89 in 10.0 mi NW 5.8 mph - N/A   Clear
4:14 PM 81.7 °F 84.3 °F 67.5 °F 62% 29.89 in 10.0 mi NNW 5.8 mph - N/A   Clear
4:34 PM 80.4 °F 83.0 °F 67.6 °F 65% 29.88 in 10.0 mi NW 5.8 mph - N/A   Clear
4:54 PM 80.8 °F 83.3 °F 67.6 °F 64% 29.88 in 10.0 mi NNW 5.8 mph - N/A   Clear
5:14 PM 81.1 °F 83.4 °F 66.7 °F 61% 29.87 in 10.0 mi NNW 3.5 mph - N/A   Clear
5:34 PM 82.4 °F 85.0 °F 67.1 °F 60% 29.86 in 10.0 mi NNW 3.5 mph - N/A   Clear
5:54 PM 82.8 °F 84.9 °F 66.0 °F 57% 29.86 in 10.0 mi NNW 5.8 mph - N/A   Clear
6:14 PM 82.6 °F 84.9 °F 66.2 °F 58% 29.86 in 10.0 mi NW 5.8 mph - N/A   Clear
6:34 PM 82.6 °F 84.9 °F 66.2 °F 58% 29.87 in 10.0 mi NW 4.6 mph - N/A   Clear
6:54 PM 82.2 °F 84.4 °F 66.0 °F 58% 29.87 in 10.0 mi Calm Calm - N/A   Clear
7:15 PM 81.5 °F 83.6 °F 65.8 °F 59% 29.87 in 10.0 mi NW 3.5 mph - N/A   Clear
7:34 PM 81.5 °F 83.6 °F 65.8 °F 59% 29.87 in 10.0 mi Calm Calm - N/A   Clear
7:54 PM 81.7 °F 83.8 °F 66.2 °F 59% 29.87 in 10.0 mi Calm Calm - N/A   Clear
8:14 PM 80.2 °F 82.5 °F 66.7 °F 63% 29.87 in 10.0 mi NW 4.6 mph - N/A   Clear
8:34 PM 79.2 °F - 65.7 °F 63% 29.87 in 10.0 mi NW 3.5 mph - N/A   Clear
8:54 PM 78.6 °F - 65.8 °F 65% 29.86 in 10.0 mi Calm Calm - N/A   Clear
9:14 PM 77.2 °F - 66.0 °F 68% 29.87 in 10.0 mi Calm Calm - N/A   Clear
9:34 PM 75.4 °F - 66.4 °F 73% 29.88 in 10.0 mi Calm Calm - N/A   Clear
9:54 PM 74.1 °F - 67.1 °F 79% 29.88 in 10.0 mi Calm Calm - N/A   Clear
10:14 PM 74.3 °F - 66.9 °F 78% 29.88 in 10.0 mi Calm Calm - N/A   Clear
10:34 PM 73.4 °F - 66.6 °F 79% 29.91 in 10.0 mi Calm Calm - N/A   Clear
10:54 PM 72.3 °F - 67.6 °F 85% 29.93 in 10.0 mi WNW 4.6 mph - N/A   Mostly Cloudy
11:14 PM 75.2 °F - 67.3 °F 76% 29.94 in 10.0 mi NW 5.8 mph - N/A   Overcast
11:34 PM 75.6 °F - 67.3 °F 75% 29.93 in 10.0 mi NW 3.5 mph - N/A   Overcast
11:55 PM 74.7 °F - 67.1 °F 77% 29.94 in 10.0 mi WNW 3.5 mph - N/A   Scattered Clouds